Flag for Sao Tome and Principe Weather past 2 weeks in São Tomé, Sao Tome and Principe

Now
77 °F

Passing clouds.


Feels Like: 78 °F
Forecast: 75 / 78 °F
Wind: 16 mph from South

Location: S. Tome

Current Time: Sep 20, 2014 at 12:47:25 AM

Latest Report: Sep 19, 2014 at 11:00 PM


Visibility: N/A

Pressure: 29.98 "Hg

Humidity: 89%

Dew point: 73 °F

Location of São ToméLocation

Historic Weather in São Tomé — Graph

°F

São Tomé temperature yesterday

Maximum temperature yesterday: 84 °F (at 1:00 PM)
Minimum temperature yesterday: 75 °F (at 4:00 AM)
Average temperature yesterday: 80 °F

Past Weeks' High & Low Weather Summary

 TemperatureHumidityPressure
High86 °F (Sep 13, 1:00 PM)100% (Sep 11, 7:00 AM)30.04 "Hg (Sep 11, 7:00 AM)
Low70 °F (Sep 6, 6:00 AM)62% (Sep 13, 1:00 PM)29.83 "Hg (Sep 5, 3:00 PM)
Average79 °F81%29.94 "Hg
* Reported Sep 4 11:00 PM — Sep 19 11:00 PM, São Tomé, Weather by CustomWeather, © 2014

Note: Actual official high and low records may vary slightly from our data, if they occured in-between our weather recording intervals... More about our weather records

Advertising

São Tomé weather history for previous 24 hours

 ConditionsComfort  
Time TempWeatherWind HumidityBarometerVisibility
11:00 PM
Sep 19
77 °FPassing clouds.16 mph89%29.98 "HgN/A
10:00 PM77 °FPassing clouds.14 mph83%29.95 "HgN/A
8:00 PM79 °FPassing clouds.2 mph74%29.92 "HgN/A
7:00 PM79 °FPassing clouds.3 mph74%29.92 "HgN/A
6:00 PM81 °FPassing clouds.5 mph70%29.89 "HgN/A
5:00 PM81 °FPartly sunny.14 mph74%29.86 "HgN/A
4:00 PM84 °FScattered clouds.12 mph66%29.86 "HgN/A
3:00 PM82 °FPartly sunny.12 mph66%29.89 "HgN/A
2:00 PM81 °FPartly sunny.16 mph74%29.89 "HgN/A
1:00 PM84 °FPartly sunny.21 mph70%29.92 "HgN/A
12:00 PM81 °FPartly sunny.21 mph79%29.95 "HgN/A
11:00 AM79 °FPartly sunny.7 mph84%29.98 "HgN/A
10:00 AM82 °FPartly sunny.12 mph74%29.98 "HgN/A
9:00 AM81 °FPartly sunny.16 mph79%29.98 "HgN/A
8:00 AM79 °FScattered clouds.14 mph79%29.95 "HgN/A
7:00 AM77 °FScattered clouds.9 mph83%29.95 "HgN/A
6:00 AM75 °FPartly sunny.7 mph89%29.95 "HgN/A
4:00 AM75 °FPassing clouds.9 mph89%29.92 "HgN/A
Weather by CustomWeather, © 2014

See weather overviewHow to use our weather pages